Wind_Speed
39 39 37 35 34 33 32 31 30 29 28 27 26 26 27 27 26 26 24 23 21 21 20 20 19 18 17 17 17 17 18 18 19 19 19 19 20 20 20 21 21 21 21 22 24 26 28 29 30 31 31 33 34 37 39 41 43 44 44 43 42 40 39 38 38 38 37 36 36 35 35 35 35 36 36 36 35 34 32 31 30 29 28 25 20
40 38 37 35 34 33 32 31 30 30 29 28 28 29 29 28 28 27 25 24 23 22 22 21 20 19 18 19 19 19 19 20 20 20 21 21 21 21 21 22 22 22 22 23 25 27 28 29 30 30 32 34 36 38 40 42 44 44 43 41 39 38 38 37 37 37 37 36 36 36 35 35 36 36 37 37 36 34 32 30 29 28 26 23 19
40 39 38 36 35 34 33 32 32 31 31 30 31 31 31 30 30 28 27 25 24 23 23 22 22 20 20 20 20 21 21 21 21 22 22 22 22 22 22 22 23 23 23 24 26 28 29 29 30 30 32 34 37 40 41 42 43 42 40 38 37 36 36 36 36 37 37 36 35 35 35 35 35 36 37 37 37 36 34 32 29 26 23 20 16
40 40 39 38 36 36 36 35 34 34 33 32 32 32 32 32 31 30 28 26 25 24 24 24 23 22 22 22 22 22 22 22 23 23 23 23 23 22 22 23 24 24 25 26 27 28 29 29 29 31 33 35 38 40 41 41 40 39 37 35 34 34 35 36 36 36 35 34 34 34 34 34 35 36 37 37 36 35 34 32 29 24 20 16 13
41 41 40 39 39 39 39 38 37 35 34 34 34 34 33 33 32 31 29 27 26 26 26 25 25 24 24 24 25 25 24 24 24 24 24 23 22 22 22 23 24 25 27 27 28 29 29 29 30 31 34 37 40 41 40 39 37 35 33 32 32 33 34 34 34 33 33 32 33 35 35 35 35 36 37 37 36 35 33 31 27 22 18 14 10
42 42 41 41 41 41 41 40 38 37 36 35 35 35 35 35 34 32 31 29 28 28 27 27 26 26 27 27 27 27 26 25 25 24 23 22 22 23 23 23 24 26 27 28 29 29 29 30 31 33 35 38 40 40 38 35 33 31 30 31 31 32 33 33 32 31 31 32 33 34 35 36 37 38 38 37 37 36 34 30 24 20 16 12 9
42 42 42 43 43 43 43 42 40 39 38 37 37 38 37 36 35 34 32 31 30 29 28 28 28 28 28 27 28 27 27 26 25 24 23 23 23 24 24 25 26 27 28 28 28 29 30 31 32 35 37 39 39 37 34 32 30 29 29 30 31 31 31 32 32 32 33 34 34 35 35 35 37 38 39 38 36 36 35 31 24 18 15 13 10
43 43 44 44 43 43 43 42 41 41 40 40 40 40 39 38 36 35 34 33 32 30 30 30 29 29 28 28 28 28 27 26 25 25 24 24 25 25 26 27 27 28 28 28 28 29 31 32 35 37 38 38 36 33 31 29 28 29 29 29 29 30 30 31 33 34 35 36 37 37 37 36 35 36 36 36 35 34 34 31 25 17 14 14 12
45 45 45 45 44 44 43 43 43 43 43 43 43 42 40 39 37 36 35 34 33 32 31 30 30 29 28 28 28 27 26 26 26 25 25 26 26 27 27 27 27 28 28 29 30 31 32 34 36 38 38 36 33 30 28 27 28 29 29 29 29 29 30 32 33 34 36 38 39 39 39 37 33 32 32 33 33 32 31 31 27 20 15 14 13
46 47 46 45 45 45 45 45 45 45 46 46 44 43 42 41 39 38 37 35 34 34 33 31 30 29 29 29 28 27 26 26 27 27 27 27 28 28 28 28 28 28 29 30 32 32 34 36 37 38 36 33 29 27 27 27 28 28 29 29 30 30 31 33 34 35 37 40 40 39 37 35 32 29 28 29 30 30 29 29 28 24 19 18 18
43 45 46 46 46 46 46 47 47 47 47 47 47 46 44 43 42 40 39 37 36 35 34 32 31 31 30 30 28 27 27 28 28 28 28 29 29 30 30 29 29 29 30 31 33 34 35 37 38 37 33 29 26 26 26 27 28 28 28 29 30 31 34 36 36 37 38 40 40 39 35 32 31 29 28 30 31 29 26 26 28 27 23 21 22
39 40 42 44 46 47 47 47 48 48 48 48 48 48 47 45 44 43 41 40 38 37 36 34 34 33 32 31 30 29 30 30 30 29 30 30 31 31 31 31 30 30 31 33 34 35 37 38 37 34 29 26 24 25 26 27 27 27 28 29 30 32 35 37 38 39 38 37 37 36 32 29 29 28 29 31 33 31 26 24 26 28 27 24 24
38 37 38 41 44 45 46 46 47 48 49 49 49 49 49 49 47 45 43 41 40 39 38 36 36 36 35 33 33 32 31 31 31 31 31 31 32 33 32 32 32 32 33 34 35 37 38 37 35 30 26 23 23 24 25 25 25 27 28 29 31 33 36 38 38 38 35 33 32 32 30 27 25 25 30 34 37 36 31 28 27 28 29 27 26
39 36 36 38 41 42 43 44 44 46 47 49 49 50 51 50 49 47 45 43 42 41 39 38 37 37 36 36 35 34 33 33 33 32 32 33 33 33 33 33 33 34 35 36 37 38 38 36 32 27 23 22 23 23 23 24 25 27 28 30 32 34 37 38 39 37 32 28 27 28 28 26 22 20 27 35 40 39 37 36 35 31 28 28 30
39 36 35 36 37 38 39 40 41 43 45 47 49 50 51 50 50 48 46 45 44 42 40 39 38 37 37 37 36 36 35 34 33 33 33 34 34 34 34 33 34 35 36 37 39 39 37 33 28 24 22 22 22 22 23 25 26 27 28 31 32 34 37 37 36 35 31 25 23 24 26 26 22 19 26 40 47 46 42 41 40 36 31 30 32
41 37 35 34 35 36 37 38 39 40 42 44 47 49 49 50 49 48 47 45 44 42 41 40 38 37 36 37 37 37 36 35 34 34 35 35 35 35 34 35 35 36 37 39 40 38 35 30 25 23 22 21 21 22 23 25 26 28 30 31 32 35 37 36 35 34 29 24 22 22 24 26 24 25 34 45 52 52 47 44 43 37 32 33 34
43 39 37 35 34 34 35 36 37 38 39 41 44 45 47 48 48 47 46 45 43 42 41 39 38 37 37 38 38 37 36 35 35 35 36 36 36 36 36 36 37 37 39 40 39 36 32 27 24 23 22 21 21 22 23 25 27 28 29 32 34 35 37 39 38 34 28 26 26 24 26 31 34 40 48 51 51 50 45 43 41 35 33 35 34
44 42 39 37 35 33 33 34 34 35 37 39 40 42 44 45 46 46 46 44 43 41 40 39 39 38 38 38 38 37 36 36 36 36 37 38 37 37 37 37 37 38 40 40 38 34 29 25 24 23 22 22 22 23 24 26 27 28 30 33 35 36 39 41 41 39 38 39 39 38 40 46 52 55 56 52 46 41 35 34 34 32 30 31 29
45 43 41 39 37 34 31 31 32 34 36 38 39 40 42 43 45 46 46 45 43 41 40 40 40 40 39 39 38 37 37 37 37 38 38 39 39 38 39 39 39 39 40 38 35 31 27 25 24 23 24 24 25 25 26 27 28 30 30 32 33 36 40 40 42 48 52 51 51 52 55 58 58 56 54 49 40 32 29 30 32 31 28 27 29
46 44 42 40 39 36 33 31 31 34 36 38 39 40 41 42 44 46 46 46 44 43 42 42 42 41 40 39 38 38 37 38 38 39 39 39 40 40 40 40 40 40 39 37 33 30 26 25 25 24 25 26 26 28 28 28 29 30 30 31 31 33 37 38 43 52 56 55 58 59 58 58 56 54 54 48 37 32 33 34 34 32 29 28 33
46 44 43 42 40 37 35 34 34 35 37 38 39 40 41 42 43 45 46 46 46 45 44 44 43 42 41 40 39 38 38 39 39 39 40 40 41 41 42 42 41 40 38 35 31 28 26 26 26 26 27 28 28 29 29 29 30 31 31 31 29 30 35 38 42 50 57 59 59 59 57 58 58 56 51 42 35 36 38 37 34 33 33 32 35
48 46 45 43 41 39 38 36 36 36 36 37 38 39 40 41 42 44 45 46 47 46 45 45 44 43 41 41 40 39 39 40 40 40 40 40 41 42 42 42 41 38 35 32 30 28 27 27 28 28 28 29 29 30 30 30 30 31 32 32 29 29 31 30 32 46 58 59 56 56 57 58 56 52 46 40 39 40 39 37 37 36 36 37 36
51 49 47 45 43 42 41 39 37 36 36 36 37 38 39 40 41 42 44 45 46 46 45 44 44 43 42 41 40 39 40 40 41 41 41 41 41 42 42 41 38 35 33 31 30 29 29 29 29 29 30 31 31 31 31 31 32 33 34 35 33 30 27 26 34 50 60 60 58 58 59 57 54 50 47 46 46 44 41 41 42 43 43 44 42
53 52 50 48 47 45 44 43 40 38 36 36 37 37 38 39 40 41 43 44 44 44 44 44 43 42 41 40 40 40 40 41 42 43 43 42 42 42 41 40 37 35 33 32 31 30 30 30 31 31 31 31 31 32 33 33 34 36 36 38 39 36 30 29 40 54 60 59 59 57 55 54 53 51 50 50 51 50 48 46 47 49 51 52 51
54 54 52 50 49 47 46 45 43 41 39 38 38 38 38 39 40 41 41 42 43 43 42 42 42 41 41 41 41 42 42 43 43 44 44 43 43 43 41 39 37 34 33 32 31 31 31 31 31 31 31 31 32 33 34 35 36 38 39 40 42 40 35 32 38 49 55 57 56 53 52 52 51 51 51 50 51 52 52 50 49 51 53 54 55
54 54 53 52 50 49 47 47 45 44 42 41 40 40 40 40 41 41 41 42 42 42 42 42 42 42 42 42 43 44 44 45 45 45 45 45 44 43 40 38 36 34 34 33 33 32 32 32 31 32 32 33 33 34 36 37 38 39 41 42 41 39 37 36 38 43 48 52 52 51 50 50 51 51 51 51 51 52 52 51 51 53 54 55 55
52 53 54 53 52 51 50 49 48 46 45 44 43 43 43 43 43 43 43 43 43 43 43 43 44 44 45 45 46 46 46 47 47 47 47 46 44 42 40 38 37 35 35 35 34 33 33 32 32 33 33 34 35 36 37 39 40 41 42 42 40 38 38 39 39 40 43 46 48 48 48 48 49 50 51 51 52 53 52 51 52 53 55 55 55
50 52 53 54 54 53 52 51 50 48 47 47 47 47 47 46 46 46 46 46 46 46 46 46 47 48 48 48 48 48 49 49 49 49 48 46 44 42 41 39 38 37 36 36 35 34 34 33 34 34 35 36 36 37 39 40 42 43 43 43 42 40 41 42 43 43 42 41 42 43 45 45 44 44 46 47 49 50 51 51 51 53 54 54 56
47 49 51 52 53 53 53 52 51 51 50 50 50 50 49 49 49 49 48 48 48 49 49 49 50 50 49 49 49 50 50 50 50 49 48 46 45 43 41 40 39 38 38 37 36 36 36 35 36 36 36 37 38 39 41 42 43 44 45 45 45 45 45 46 46 45 43 38 35 35 35 35 35 37 40 43 45 48 50 50 52 53 54 55 58
43 46 47 49 51 51 52 52 52 52 52 52 53 52 52 51 51 51 50 50 50 51 51 51 51 51 50 50 50 50 50 51 50 49 47 46 44 43 42 41 40 39 39 38 38 37 37 37 37 37 38 39 40 41 43 44 45 46 47 47 47 48 48 48 48 47 45 41 37 34 31 32 35 39 42 45 47 48 50 51 52 54 55 57 59
39 42 44 45 47 49 50 51 52 52 53 53 54 54 53 53 53 52 52 52 52 52 52 52 52 52 51 51 51 51 51 51 49 48 46 45 44 43 42 41 41 40 40 39 39 39 39 39 39 40 40 41 42 44 45 46 47 49 49 50 50 50 51 51 50 48 47 46 44 43 41 40 42 44 48 51 51 51 51 51 51 52 54 56 58
37 38 40 42 44 46 47 49 49 50 51 52 52 53 53 53 53 53 53 53 53 53 54 54 54 53 53 53 52 52 51 50 48 47 46 45 44 44 43 43 43 42 41 41 41 41 42 42 42 42 43 44 45 46 47 48 49 51 51 52 53 53 53 54 53 52 51 50 49 48 48 48 48 50 54 56 55 53 51 50 51 51 52 54 56
36 37 37 39 41 43 44 46 47 48 49 50 51 51 52 52 52 53 53 54 54 54 55 55 54 54 53 53 52 52 50 49 48 47 46 45 45 45 45 45 45 44 44 44 44 45 45 45 45 46 46 47 48 49 50 51 52 53 54 55 56 56 56 56 56 55 55 53 51 49 48 49 51 56 60 61 57 53 52 51 51 50 51 52 53
38 37 37 38 39 40 42 43 45 46 47 48 49 50 50 51 51 52 53 53 54 54 54 54 54 54 53 53 52 51 50 49 48 47 47 47 47 48 48 48 47 47 47 47 48 48 48 48 48 49 50 51 52 52 53 54 55 56 57 58 59 59 59 59 59 58 57 53 49 47 47 51 56 61 63 62 59 56 55 54 54 52 51 50 50
39 39 38 38 38 39 40 41 42 43 44 45 46 47 48 48 49 50 50 51 52 52 52 53 53 53 53 53 53 52 51 50 49 49 50 50 50 50 50 50 50 50 50 50 51 51 51 51 52 53 53 54 55 56 56 57 58 59 60 61 62 62 62 62 61 60 56 50 46 47 51 57 61 63 62 61 60 60 59 58 58 56 53 50 48
42 41 40 40 39 39 39 40 40 41 41 42 43 44 45 45 46 47 48 48 49 50 51 51 52 53 53 53 53 52 52 51 51 51 52 52 52 52 52 53 53 53 53 54 54 54 54 55 55 56 57 58 58 59 60 61 61 62 63 64 65 65 65 64 63 60 55 50 48 52 58 63 64 65 64 64 63 63 63 63 63 61 57 52 48
46 45 44 43 42 41 41 42 41 41 41 42 42 43 44 44 45 46 46 46 47 49 50 51 52 53 54 54 53 53 53 53 54 54 54 54 54 55 55 56 56 56 56 57 57 57 57 58 59 60 60 61 62 63 63 64 65 65 66 67 67 68 67 66 63 60 56 53 53 57 63 68 70 70 69 68 67 67 67 67 67 66 63 58 52
50 49 48 47 46 45 44 45 44 44 43 43 44 44 45 45 45 45 45 46 48 49 51 53 55 56 56 56 55 55 56 56 56 56 57 57 58 58 59 59 60 60 60 59 59 60 60 62 63 63 64 65 65 66 67 67 68 69 69 69 69 69 69 67 64 60 56 55 56 61 67 73 75 74 72 71 70 70 70 70 70 69 68 64 59
54 54 53 52 51 49 48 48 48 47 47 47 47 47 46 46 46 46 46 48 50 52 53 55 57 58 59 59 58 57 57 59 61 62 62 62 63 63 63 63 63 62 61 61 62 63 65 66 67 67 68 68 69 70 70 71 72 73 73 72 72 71 70 68 64 60 57 56 59 64 71 76 78 77 75 73 73 72 72 71 70 70 68 67 63
58 57 57 56 55 54 52 51 51 51 51 51 50 49 48 48 48 48 49 51 53 54 55 57 59 60 61 62 62 58 54 53 56 59 62 64 66 67 66 65 64 63 63 64 66 67 68 69 70 71 71 72 72 73 74 74 75 76 76 76 74 72 69 67 64 60 58 59 62 68 75 80 81 79 77 75 75 74 73 72 71 69 68 66 64
61 60 59 59 58 57 57 56 55 55 55 54 53 51 51 52 52 52 55 58 58 56 56 58 61 63 64 64 65 64 60 56 55 57 58 60 61 62 63 63 64 66 67 68 70 71 71 72 73 74 75 76 76 76 77 77 78 78 78 77 75 72 68 66 64 62 62 63 67 74 80 84 83 81 79 78 77 76 75 73 71 69 67 66 64
63 63 62 61 61 60 60 59 59 59 59 58 56 55 55 56 56 57 60 63 63 60 57 57 60 64 67 68 67 68 68 68 67 65 65 64 64 65 66 68 69 71 72 72 73 74 75 76 77 78 79 79 79 79 79 80 81 81 80 78 75 72 69 66 65 65 66 69 75 81 86 87 85 82 81 80 79 79 76 74 72 69 67 65 64
65 64 64 63 63 62 62 62 62 62 62 62 60 59 59 60 61 62 64 66 66 66 66 63 62 63 66 68 69 70 71 72 73 73 73 73 74 74 74 75 75 75 76 77 77 78 78 79 80 81 82 82 82 82 82 83 83 83 81 78 75 72 70 69 68 69 72 77 83 88 89 87 86 85 84 83 81 79 77 74 72 69 67 65 64
68 67 66 65 65 64 64 64 64 64 65 65 64 64 63 63 64 66 67 68 69 70 73 73 71 70 68 69 70 72 73 74 75 76 76 77 78 79 79 80 80 80 80 81 81 82 82 83 84 84 85 85 86 85 85 86 86 84 81 78 76 74 73 73 74 76 81 87 91 91 90 88 87 87 86 85 83 80 78 75 72 69 67 65 64
70 69 69 68 68 67 67 67 67 67 67 67 67 67 67 67 67 68 69 69 70 73 76 77 77 76 75 74 74 76 77 78 79 79 80 81 82 82 83 83 84 84 85 85 85 85 86 86 87 87 88 88 88 88 89 89 87 83 79 78 78 77 77 77 80 85 90 94 94 93 91 89 89 88 86 85 83 80 78 75 73 70 68 66 65
71 71 71 70 70 70 70 70 70 70 70 71 71 71 72 72 72 72 72 72 73 74 77 78 79 79 79 79 79 80 81 82 83 84 85 85 85 86 87 87 88 88 89 88 88 89 89 90 90 90 91 91 91 91 90 88 83 79 78 79 80 80 81 84 89 94 97 97 95 94 92 91 90 88 87 84 82 80 77 75 73 71 69 68 67
72 72 72 72 72 71 71 71 72 72 73 73 74 74 75 75 76 76 76 77 77 78 79 80 82 82 83 83 83 84 85 86 87 88 88 89 90 90 91 91 91 92 92 91 92 92 92 92 93 93 94 94 92 90 87 83 80 79 80 80 81 83 88 93 97 99 98 97 96 95 94 92 91 89 86 84 81 79 77 75 73 72 70 69 69
74 73 73 73 72 71 70 70 71 72 74 76 77 78 79 79 79 79 80 81 81 82 83 83 84 85 85 86 87 87 88 89 90 90 91 92 92 93 93 93 94 94 94 94 94 94 94 95 95 95 94 92 88 84 83 82 82 82 81 82 85 91 97 101 101 100 99 98 97 96 95 93 91 89 86 84 82 80 77 75 73 72 71 72 71
73 72 72 72 71 69 68 67 67 68 70 72 72 72 73 74 74 77 80 81 82 84 85 86 86 86 86 87 88 88 89 90 91 92 93 93 94 94 94 94 95 95 95 96 96 96 96 95 94 93 89 86 84 84 85 85 85 84 85 89 95 101 104 103 102 102 100 99 98 97 96 94 91 89 86 84 82 80 79 76 75 74 74 74 74
70 71 71 70 69 68 67 67 66 63 61 61 62 65 67 69 70 73 75 76 77 79 80 81 82 83 84 85 86 87 89 90 91 92 93 94 95 95 96 96 97 97 96 96 95 93 91 89 88 87 87 87 87 88 88 88 88 90 95 100 105 107 106 105 104 103 101 100 98 96 95 93 91 88 86 84 83 81 80 79 78 78 77 77 77
68 68 67 66 65 66 68 70 70 66 59 55 59 64 69 72 75 77 77 77 77 77 78 79 79 80 80 80 82 83 85 86 88 90 92 93 94 95 95 95 95 94 92 90 88 87 86 86 87 89 90 92 92 93 93 94 97 101 105 109 110 109 108 107 105 103 102 100 98 96 94 92 90 89 87 85 84 83 83 83 82 82 82 81 79
Wind_Direction
225 226 225 224 223 222 221 219 217 214 212 211 211 212 214 215 217 220 223 227 231 236 241 247 252 258 265 270 276 281 286 289 292 294 297 298 299 300 301 303 306 310 314 318 321 323 325 326 327 328 330 332 334 335 335 334 334 333 333 335 337 340 343 344 344 346 348 350 351 351 351 350 348 345 344 346 347 347 347 347 344 342 338 335 332
224 227 229 229 228 227 225 222 219 217 214 212 211 213 215 218 220 223 225 227 231 236 242 248 254 261 267 272 277 281 285 288 291 293 294 295 297 298 300 302 306 311 316 318 319 321 323 324 325 326 329 332 333 333 333 333 332 332 333 336 340 342 344 345 345 347 350 350 350 350 351 350 348 345 345 346 347 347 348 349 347 344 339 337 337
221 226 229 230 230 230 227 224 221 219 216 214 214 215 216 219 223 225 228 229 232 237 244 250 257 263 268 274 278 281 285 288 290 292 294 295 296 298 301 304 308 313 315 316 317 319 320 321 323 326 329 330 331 331 331 331 331 332 335 339 342 344 344 345 347 349 349 348 347 348 349 349 346 344 344 346 346 346 349 350 350 347 342 339 345
219 223 226 228 228 228 228 226 223 221 219 217 217 218 219 221 224 227 230 231 234 240 246 253 259 265 270 275 279 282 285 287 290 292 293 295 297 301 304 308 310 312 312 313 315 316 317 319 323 326 328 329 329 330 330 330 331 334 337 341 344 344 344 345 347 348 348 346 344 344 346 346 345 342 342 344 344 345 348 351 352 350 345 345 356
218 221 224 226 227 227 228 229 228 226 223 221 221 221 222 224 226 229 232 235 237 242 249 255 261 267 271 275 278 281 283 286 289 291 294 297 302 305 307 308 309 309 310 311 313 314 316 319 322 325 327 328 328 329 330 331 333 336 339 342 344 345 345 345 346 346 345 343 341 340 342 343 342 340 340 341 342 343 346 351 353 351 348 351 5
220 220 221 224 226 228 229 231 232 231 228 225 224 224 224 226 228 231 234 238 241 245 251 257 263 269 273 276 279 280 283 285 287 290 295 301 305 307 307 306 306 306 307 310 312 313 316 319 322 325 327 328 329 329 329 331 334 338 340 342 344 346 345 343 342 342 341 340 338 338 339 340 340 339 339 339 339 341 345 350 353 350 348 353 7
222 221 221 222 225 227 230 231 233 233 231 229 228 227 227 228 229 232 235 239 243 248 253 259 265 269 273 277 279 280 283 285 287 291 297 302 304 304 304 304 304 305 307 309 311 313 316 319 322 325 327 328 329 328 330 332 335 338 340 342 344 345 342 338 336 338 339 337 336 335 336 338 338 338 338 337 336 337 340 346 350 347 343 349 356
223 223 222 222 223 225 229 231 233 234 234 232 231 231 231 231 232 233 236 240 244 249 254 260 265 269 273 275 278 280 282 284 287 293 299 302 302 302 303 304 305 306 307 309 310 313 316 319 322 325 327 328 329 328 329 332 335 338 340 341 342 341 338 333 333 337 337 335 334 334 334 336 336 336 337 336 334 333 334 339 343 341 331 332 339
227 226 226 225 225 224 226 229 232 234 235 235 235 235 235 235 236 237 238 241 245 249 254 259 263 268 272 275 277 279 280 283 288 294 298 299 300 301 303 305 305 305 307 309 310 312 316 319 322 325 327 328 328 328 329 333 336 338 338 339 339 337 334 330 333 337 336 334 334 334 334 334 334 334 335 333 332 330 329 331 335 335 322 312 317
229 229 230 231 230 228 226 227 229 233 235 237 237 237 237 238 238 239 241 243 246 249 254 258 262 266 271 276 277 277 279 283 289 293 296 297 298 300 302 303 303 304 306 307 309 313 316 320 323 325 327 327 327 328 330 333 336 336 336 337 337 336 332 330 334 338 336 334 333 333 333 331 331 334 336 334 333 330 326 325 328 329 322 308 303
229 230 232 233 234 233 231 228 227 230 233 236 237 237 238 239 239 241 242 244 246 250 254 258 260 264 270 275 276 276 279 283 288 291 293 294 296 298 299 300 301 303 304 306 309 313 316 320 323 324 325 325 326 328 331 333 334 335 336 338 338 336 332 330 335 338 336 333 332 331 332 332 333 339 343 341 341 338 328 321 321 324 323 314 304
230 231 233 235 236 237 236 234 231 229 230 233 236 237 238 238 239 241 242 244 247 250 254 257 260 263 269 273 274 275 278 283 287 289 290 291 293 295 296 298 300 301 303 306 309 313 316 320 322 322 323 324 326 329 330 332 333 335 338 339 338 335 331 331 336 339 337 334 330 328 333 336 338 349 359 359 358 356 343 327 322 322 323 319 307
232 233 235 236 237 238 239 239 237 234 231 231 233 235 237 238 239 240 242 244 247 250 253 256 260 264 268 271 272 274 278 282 285 287 287 288 290 292 294 296 298 299 303 306 309 313 317 320 320 320 320 323 326 328 328 330 332 335 338 339 338 335 331 332 338 340 337 334 329 326 333 338 341 2 16 10 4 1 354 343 335 327 325 319 306
233 234 236 237 238 239 240 241 241 239 236 233 232 233 236 237 239 240 242 244 246 249 252 256 259 263 266 269 271 274 277 281 284 285 285 285 287 289 292 294 296 299 303 306 309 313 316 318 317 316 318 322 324 326 327 329 333 336 338 338 338 335 333 335 339 339 338 335 327 324 331 333 334 357 11 1 352 349 347 344 339 333 328 318 303
233 235 237 238 238 238 240 242 243 242 241 237 235 234 235 236 238 240 241 243 246 248 251 254 257 261 264 268 271 273 276 280 282 282 282 283 285 287 289 291 295 300 303 305 309 313 315 315 313 313 316 320 323 324 327 330 333 337 337 336 337 336 334 335 335 336 338 335 324 321 327 327 322 332 345 343 339 336 334 331 328 327 327 320 308
232 233 235 236 236 236 238 241 243 243 243 241 239 238 237 237 238 239 241 243 245 248 250 253 256 259 263 267 270 272 276 279 279 278 279 281 283 285 288 291 296 299 302 305 309 312 312 310 308 309 313 318 320 323 327 329 332 335 334 335 337 336 335 335 334 336 341 338 325 321 325 324 322 323 328 330 328 326 324 320 316 316 317 313 309
230 232 233 233 234 234 236 239 241 242 243 243 242 242 241 240 239 240 241 243 245 247 249 252 255 258 261 264 268 271 274 275 275 276 278 279 281 284 287 291 295 299 302 305 307 309 308 304 304 307 311 315 318 320 324 327 329 332 333 334 336 335 334 336 338 340 342 337 329 323 318 318 317 317 318 320 320 318 316 312 310 311 307 301 303
229 230 231 232 233 234 236 238 240 241 242 243 244 244 244 243 241 241 242 243 244 246 249 252 255 257 260 263 266 269 270 271 271 274 276 278 280 284 287 291 295 299 302 303 304 304 302 299 302 306 309 313 314 317 321 324 327 330 332 334 336 334 332 335 337 334 330 327 325 320 316 316 317 317 318 319 320 320 318 312 311 313 306 296 298
229 230 231 233 233 234 236 237 239 240 242 243 245 245 245 245 243 243 243 243 244 246 249 252 255 257 260 262 264 265 266 267 269 272 274 277 280 284 287 291 296 299 300 301 300 298 295 295 300 304 307 310 313 316 321 323 325 327 330 332 333 331 329 332 335 332 327 323 320 319 318 319 319 320 322 322 321 322 324 319 314 314 310 300 299
230 231 233 234 233 233 234 235 236 237 239 241 243 245 245 245 244 244 244 244 245 247 249 252 255 257 259 261 262 262 263 265 268 271 273 277 281 284 288 291 295 297 298 297 295 292 292 295 299 303 307 311 314 316 319 321 322 323 325 329 330 327 326 330 335 332 324 318 317 318 318 317 317 319 322 321 318 317 319 319 316 314 310 301 295
231 232 233 233 233 232 232 232 232 232 234 236 238 241 242 243 243 243 244 245 246 247 249 252 254 256 258 259 259 260 262 265 268 271 273 277 281 285 288 291 294 296 295 293 291 291 294 298 301 304 307 309 311 312 314 317 318 318 320 324 327 325 323 327 333 328 318 313 315 316 314 312 313 317 319 317 315 314 316 318 320 319 314 305 294
231 231 231 231 231 230 229 229 229 229 230 232 235 237 239 240 241 242 243 244 245 246 248 250 252 254 255 256 257 259 262 265 268 271 274 277 281 284 287 291 293 293 292 289 289 291 294 295 297 299 301 302 305 307 310 313 313 314 317 321 324 322 319 323 329 322 313 310 311 312 311 311 312 314 314 312 312 315 315 315 318 320 319 316 307
230 229 229 229 228 228 228 228 228 228 230 231 234 236 237 237 238 239 241 242 244 245 247 248 250 252 253 255 257 260 263 266 268 271 274 276 279 282 285 287 288 287 284 282 282 285 287 288 290 293 296 299 303 305 308 310 312 314 317 321 323 320 314 316 320 315 309 308 310 310 310 312 314 315 314 311 312 314 313 312 315 318 321 325 324
231 231 230 229 229 229 229 229 230 231 232 233 235 236 237 238 238 238 239 241 243 244 246 248 249 251 253 255 258 260 263 265 268 271 273 275 277 280 281 282 282 278 276 275 278 280 283 285 288 291 295 298 302 304 306 309 311 315 318 320 321 318 311 309 311 308 306 307 309 309 309 312 314 315 313 311 311 311 311 313 314 315 318 323 328
232 233 233 232 231 230 231 231 232 234 235 236 237 238 239 240 240 240 241 242 244 245 247 248 250 252 254 256 258 260 263 265 268 269 271 273 275 277 278 278 276 274 272 274 276 279 282 284 288 291 294 297 300 303 305 308 311 314 317 319 318 316 311 304 301 303 306 308 308 307 306 306 308 308 307 307 307 307 308 311 312 313 314 316 320
231 232 233 234 233 232 232 233 234 235 236 237 238 239 240 241 242 242 243 244 245 246 248 249 251 253 254 256 258 260 262 264 266 267 269 272 274 275 275 273 271 269 270 273 275 277 280 283 287 291 294 296 299 302 304 307 310 313 316 318 317 316 313 308 301 301 305 306 305 304 303 301 303 304 304 304 304 304 306 308 308 309 310 311 312
231 231 232 233 234 233 233 233 234 235 236 237 238 239 240 241 242 243 244 245 246 247 248 250 251 253 254 256 258 260 261 263 265 267 269 271 272 272 270 268 266 267 269 271 273 276 279 283 286 290 292 295 298 301 303 306 309 311 315 317 317 315 315 316 313 310 308 305 302 301 301 300 301 302 303 304 304 304 304 305 305 305 307 308 309
231 231 232 232 233 234 234 234 235 235 236 237 238 239 240 241 242 243 244 245 247 248 249 250 251 253 255 257 258 260 261 263 265 267 269 270 269 268 265 264 264 266 268 270 272 275 278 282 284 287 291 294 297 300 302 305 307 310 312 315 316 314 314 316 318 317 315 311 306 302 301 301 304 305 307 308 308 307 307 307 307 306 306 307 307
232 232 232 233 233 234 235 235 235 235 235 236 237 238 240 241 243 244 245 247 247 249 250 251 253 254 256 258 259 261 262 264 265 267 268 267 266 264 262 261 263 265 267 269 272 275 278 281 284 287 290 293 296 299 301 303 306 308 310 313 314 314 313 314 316 316 316 313 310 308 307 308 311 314 315 315 314 312 312 312 311 309 307 307 306
232 232 233 233 234 235 235 236 236 236 236 237 238 239 240 242 243 245 246 247 249 250 251 253 254 256 257 258 260 261 262 263 265 265 265 264 262 260 260 261 263 265 267 270 273 276 278 281 283 286 289 292 295 297 300 302 304 306 308 310 312 312 312 313 314 315 313 310 306 305 305 308 311 313 315 316 314 312 312 311 310 308 307 307 306
232 232 233 233 234 235 236 237 237 238 238 239 240 241 242 243 244 245 247 248 250 251 252 254 255 256 257 258 259 260 261 262 263 263 262 261 260 259 261 263 265 267 269 272 274 276 278 280 283 285 288 291 293 295 298 300 303 304 306 308 309 310 311 311 312 312 312 309 304 300 298 300 304 309 313 314 314 312 312 311 309 308 307 306 304
232 232 232 233 234 235 236 237 238 239 240 241 242 243 243 244 245 247 248 249 250 252 253 255 256 257 257 258 258 259 259 260 260 259 258 258 258 260 262 264 266 268 270 272 273 275 277 279 282 284 287 290 292 294 297 299 301 302 304 305 307 308 308 309 310 310 310 309 307 303 300 299 301 307 311 312 312 312 311 311 310 309 308 306 304
231 231 231 232 233 234 236 237 238 239 240 242 243 244 245 245 246 247 248 250 251 252 253 254 256 256 256 256 257 257 257 257 257 256 256 257 258 261 263 265 266 268 269 270 272 274 276 279 281 284 287 290 291 293 295 297 299 301 302 304 305 306 307 308 309 309 309 308 306 304 302 302 304 308 311 312 311 311 312 312 311 311 310 308 304
232 232 231 231 232 233 234 236 237 238 240 241 243 244 245 246 247 247 248 249 250 252 253 254 254 255 255 255 255 255 255 255 254 254 255 257 259 261 263 265 266 268 269 270 272 274 277 279 282 284 287 289 291 292 294 296 298 300 301 302 303 304 305 306 307 308 309 308 306 305 306 307 308 309 310 311 312 312 313 313 312 312 312 309 304
235 234 233 233 233 234 234 235 236 238 239 240 242 243 244 245 246 247 248 249 250 251 252 253 253 253 253 253 253 253 253 253 253 254 255 257 259 261 263 265 267 268 270 272 274 276 278 281 283 285 287 289 290 292 294 296 298 299 301 302 302 303 304 305 305 306 307 306 307 309 311 312 312 312 312 312 313 314 314 314 313 313 313 312 307
239 239 238 237 237 237 237 237 238 239 240 241 242 243 244 244 245 246 247 249 250 251 251 252 252 252 251 251 251 252 252 252 253 254 256 258 260 262 264 266 268 269 271 273 275 278 280 282 284 286 287 289 291 293 294 296 297 299 300 301 302 303 304 304 304 304 303 301 303 307 312 314 315 315 314 315 315 315 315 315 315 314 313 313 310
242 242 242 242 241 241 242 242 242 242 243 244 244 245 245 245 246 247 248 249 251 251 251 251 251 250 249 249 250 251 252 253 254 256 258 260 262 264 265 267 269 271 273 275 277 279 281 284 285 286 288 290 291 293 294 296 297 298 299 300 301 302 303 303 303 301 299 297 298 304 311 315 317 317 316 316 316 316 315 315 315 314 313 312 312
242 243 244 244 244 244 245 246 246 247 247 247 248 247 247 247 248 249 250 251 252 252 252 252 251 251 250 250 250 252 254 255 257 258 260 261 263 265 266 268 270 272 274 276 278 281 282 284 285 287 288 290 291 293 294 295 296 297 298 298 300 301 302 302 302 299 295 294 297 303 310 315 316 316 315 315 314 314 314 313 313 313 312 312 311
241 242 243 245 245 245 246 246 248 249 250 250 250 250 249 250 250 250 251 252 253 253 253 253 254 254 253 253 253 254 257 259 259 260 261 263 264 265 267 268 270 272 275 277 279 281 282 283 285 286 288 289 291 292 293 294 295 296 297 297 299 299 300 301 301 297 293 293 297 303 309 312 313 313 313 313 312 312 312 311 311 310 310 310 309
240 241 242 244 245 246 246 247 248 249 250 250 251 251 251 251 250 251 252 253 254 255 255 255 256 256 257 256 255 256 260 264 264 263 264 264 265 265 267 269 272 274 276 278 279 280 281 283 285 286 288 289 290 291 292 293 295 295 296 297 298 298 298 299 299 296 294 294 297 303 308 310 311 311 311 311 310 310 310 309 309 309 308 307 307
239 240 242 243 244 245 246 246 247 248 249 249 250 251 251 250 249 250 251 252 253 256 258 259 258 258 258 258 257 257 259 263 266 266 266 267 267 268 270 272 274 275 276 277 279 280 282 283 285 286 287 288 289 291 292 293 294 294 296 297 297 297 296 297 297 296 295 295 298 303 307 309 309 309 309 309 309 309 308 308 308 307 306 305 305
240 241 242 243 244 245 246 247 248 248 249 249 248 249 250 250 250 249 251 252 252 254 256 258 259 259 258 258 257 258 259 262 265 266 267 268 270 272 274 275 275 276 276 278 279 281 282 283 285 286 287 288 289 290 291 292 292 293 295 296 296 296 296 296 296 296 296 297 301 304 306 307 307 307 307 308 307 307 307 307 306 305 305 304 304
241 242 243 244 245 246 247 248 249 250 250 250 249 248 248 249 249 250 252 254 254 253 254 257 260 262 262 260 259 260 261 263 266 267 268 269 271 273 274 275 276 276 277 279 280 281 282 283 284 285 286 287 288 289 290 290 291 292 293 294 295 296 296 296 296 296 298 300 303 305 305 306 306 306 306 307 307 306 306 306 305 304 303 303 303
241 242 243 245 246 248 249 250 250 251 252 252 252 251 251 250 250 251 253 255 256 257 258 260 262 264 265 264 263 263 264 265 267 269 269 270 272 273 274 276 277 278 279 280 281 281 282 283 284 285 286 287 288 288 289 289 290 291 292 293 294 295 295 295 296 297 299 301 303 304 304 304 305 305 305 306 306 305 305 304 304 303 303 302 302
240 241 242 244 245 247 248 250 251 252 253 253 254 255 254 254 253 253 253 254 256 258 259 260 262 264 265 266 265 266 267 268 269 270 271 272 273 274 276 277 278 278 279 280 280 281 282 283 284 285 285 286 286 287 287 288 289 290 290 292 294 294 294 295 296 298 300 302 303 303 303 304 304 304 304 304 304 304 304 303 303 303 302 302 301
240 241 242 243 244 246 248 249 251 253 254 254 255 256 256 256 256 256 255 255 255 256 258 260 263 264 265 266 266 267 268 269 270 271 272 273 274 275 276 276 277 278 278 279 280 281 282 282 283 283 284 285 285 286 287 287 288 289 290 291 293 293 293 295 297 299 301 302 302 302 303 303 303 303 303 303 303 303 302 302 302 301 301 301 301
242 243 244 245 245 246 248 250 252 254 255 256 257 257 257 257 257 257 257 257 257 257 258 260 262 263 264 265 266 266 267 268 269 270 271 272 273 273 274 275 276 277 278 278 279 280 281 281 282 282 283 284 285 286 286 287 288 289 290 291 291 292 295 297 299 300 301 301 301 302 302 302 302 302 302 302 302 301 301 301 300 300 300 300 300
245 245 246 247 248 250 252 254 257 258 259 260 260 260 260 259 258 258 257 257 258 258 259 259 260 261 262 263 264 264 265 266 267 268 269 270 270 271 272 273 274 275 276 277 278 279 279 280 281 282 283 284 284 285 286 287 288 288 289 289 291 295 297 299 299 300 300 300 301 301 301 302 302 302 302 301 301 300 300 300 299 298 298 298 299
252 252 251 250 251 252 253 256 258 260 262 262 261 261 261 261 260 259 259 259 259 259 259 259 260 261 261 262 263 264 265 265 266 267 268 269 270 270 271 272 273 274 275 276 277 278 279 280 281 282 283 283 284 286 286 287 287 287 288 290 294 296 298 298 299 299 300 300 300 300 301 301 301 301 301 300 300 300 299 299 298 298 298 298 299
254 256 256 256 255 254 253 252 253 255 257 258 256 255 256 258 260 261 261 261 261 261 261 261 262 263 263 264 265 265 266 267 267 268 268 269 270 270 271 272 273 274 275 277 278 280 281 282 283 283 284 285 286 286 286 286 286 287 289 292 295 296 297 298 298 299 299 300 300 300 299 299 299 299 299 299 299 299 299 298 298 298 298 298 298
252 254 255 256 256 256 254 252 249 248 248 250 252 254 256 259 260 259 259 260 261 262 263 264 264 264 265 266 267 268 268 268 268 269 269 270 270 271 272 273 274 275 277 279 280 281 283 284 285 285 286 286 286 286 286 286 287 288 291 293 295 296 297 297 298 299 299 299 299 299 298 298 298 298 298 299 299 298 298 298 298 298 298 298 297
Height
10965 10968 10970 10972 10974 10975 10977 10979 10981 10982 10983 10985 10987 10988 10990 10991 10993 10994 10996 10997 10999 11000 11001 11002 11002 11003 11003 11004 11004 11005 11005 11004 11004 11004 11004 11003 11003 11002 11001 11000 11000 10999 10998 10998 10997 10995 10994 10993 10991 10989 10987 10985 10983 10980 10978 10975 10973 10970 10968 10966 10963 10961 10959 10956 10954 10951 10949 10947 10944 10942 10939 10937 10934 10931 10929 10927 10924 10922 10920 10918 10916 10913 10912 10910 10909
10962 10966 10969 10971 10972 10974 10976 10977 10979 10981 10982 10983 10985 10986 10987 10989 10990 10992 10994 10995 10997 10998 10999 11000 11001 11002 11002 11003 11003 11003 11003 11003 11003 11002 11002 11002 11001 11001 11000 10999 10998 10998 10997 10996 10995 10994 10993 10991 10989 10988 10985 10983 10980 10978 10975 10973 10970 10967 10965 10963 10961 10959 10956 10954 10952 10949 10947 10944 10942 10939 10937 10934 10932 10929 10926 10924 10922 10919 10918 10916 10914 10911 10909 10908 10907
10960 10963 10966 10969 10971 10973 10974 10975 10977 10978 10980 10981 10982 10983 10985 10986 10988 10990 10992 10993 10995 10996 10997 10998 10999 11000 11001 11001 11002 11001 11002 11001 11001 11001 11000 11000 11000 10999 10998 10997 10997 10996 10996 10995 10994 10992 10991 10989 10988 10986 10984 10981 10978 10976 10974 10971 10968 10965 10963 10962 10959 10957 10954 10952 10950 10948 10945 10942 10940 10938 10935 10933 10930 10927 10924 10922 10919 10917 10915 10913 10911 10909 10907 10906 10906
10957 10960 10963 10966 10969 10970 10971 10972 10973 10975 10977 10979 10980 10981 10983 10984 10986 10988 10990 10992 10993 10994 10995 10996 10997 10998 10999 10999 11000 11000 11000 10999 10999 10999 10998 10998 10998 10997 10997 10996 10995 10994 10993 10993 10992 10990 10989 10988 10987 10985 10982 10979 10977 10974 10972 10969 10966 10964 10962 10961 10958 10956 10953 10951 10948 10946 10943 10940 10937 10935 10934 10932 10929 10925 10923 10920 10918 10915 10913 10912 10910 10908 10906 10905 10905
10954 10956 10959 10963 10965 10966 10967 10969 10970 10973 10975 10977 10978 10979 10981 10982 10984 10986 10988 10990 10991 10992 10993 10994 10995 10996 10996 10997 10997 10998 10998 10998 10997 10997 10996 10996 10996 10996 10995 10994 10993 10992 10990 10990 10989 10988 10987 10986 10985 10983 10981 10978 10975 10972 10970 10968 10965 10963 10961 10960 10958 10955 10952 10950 10947 10945 10942 10939 10936 10933 10931 10929 10927 10924 10921 10919 10916 10914 10912 10911 10909 10907 10906 10905 10905
10950 10953 10956 10958 10961 10963 10964 10966 10968 10970 10973 10974 10976 10977 10978 10980 10982 10983 10986 10987 10988 10990 10991 10992 10993 10993 10994 10994 10995 10995 10996 10996 10995 10995 10995 10994 10994 10993 10993 10992 10991 10990 10988 10987 10986 10986 10985 10984 10982 10981 10978 10976 10973 10970 10968 10966 10964 10962 10961 10958 10956 10954 10951 10948 10946 10943 10941 10938 10935 10932 10929 10927 10924 10922 10920 10917 10915 10913 10911 10910 10908 10906 10905 10905 10905
10948 10949 10952 10954 10957 10960 10961 10963 10966 10968 10970 10971 10973 10974 10975 10977 10979 10981 10983 10984 10986 10987 10989 10990 10990 10991 10992 10992 10992 10993 10993 10993 10993 10992 10992 10992 10991 10991 10990 10989 10988 10987 10987 10986 10984 10983 10982 10981 10980 10978 10976 10974 10971 10968 10965 10964 10962 10961 10959 10957 10955 10953 10950 10946 10944 10941 10939 10936 10934 10932 10930 10927 10924 10921 10918 10916 10913 10911 10910 10909 10908 10907 10905 10905 10905
10945 10946 10948 10950 10953 10956 10958 10961 10964 10965 10967 10968 10969 10970 10972 10974 10977 10978 10980 10981 10983 10985 10986 10987 10988 10988 10989 10990 10990 10990 10990 10990 10990 10989 10989 10989 10989 10988 10987 10986 10986 10984 10984 10983 10983 10982 10980 10978 10977 10975 10973 10971 10968 10966 10963 10962 10961 10959 10958 10956 10954 10952 10949 10945 10943 10940 10938 10935 10932 10930 10928 10926 10924 10921 10918 10915 10912 10911 10909 10908 10907 10907 10906 10905 10904
10942 10943 10944 10946 10949 10952 10956 10958 10960 10962 10963 10964 10966 10967 10970 10972 10974 10976 10977 10979 10981 10982 10983 10984 10985 10986 10987 10987 10987 10988 10988 10988 10987 10987 10987 10986 10986 10985 10985 10984 10983 10982 10981 10980 10980 10979 10978 10976 10974 10972 10970 10968 10966 10964 10962 10960 10959 10957 10955 10954 10952 10950 10947 10944 10942 10940 10936 10933 10931 10928 10925 10923 10922 10920 10918 10915 10912 10910 10909 10907 10906 10906 10905 10904 10904
10938 10940 10942 10944 10946 10949 10952 10954 10956 10958 10960 10961 10963 10965 10967 10969 10971 10972 10974 10976 10977 10979 10980 10981 10983 10983 10984 10984 10985 10985 10985 10985 10985 10984 10984 10984 10983 10983 10982 10981 10981 10980 10979 10978 10977 10976 10975 10974 10972 10970 10968 10966 10963 10961 10960 10958 10957 10955 10953 10952 10949 10947 10944 10941 10940 10938 10935 10931 10928 10926 10923 10921 10919 10918 10917 10914 10912 10910 10908 10906 10905 10904 10904 10903 10902
10934 10936 10939 10941 10943 10945 10947 10950 10952 10954 10956 10958 10960 10962 10964 10965 10967 10969 10971 10972 10974 10975 10977 10978 10979 10980 10981 10981 10982 10983 10983 10983 10982 10982 10982 10981 10980 10980 10979 10978 10978 10977 10977 10975 10974 10973 10972 10971 10969 10967 10965 10963 10961 10960 10958 10956 10955 10953 10951 10949 10947 10944 10940 10938 10937 10936 10933 10929 10925 10923 10922 10919 10916 10916 10916 10914 10912 10910 10908 10906 10904 10903 10902 10901 10900
10931 10933 10935 10938 10939 10941 10943 10946 10948 10950 10952 10954 10957 10958 10960 10961 10963 10965 10967 10969 10971 10972 10973 10975 10976 10977 10977 10978 10979 10979 10980 10980 10980 10980 10979 10978 10977 10976 10976 10975 10975 10974 10974 10972 10971 10970 10969 10968 10966 10964 10963 10961 10960 10958 10956 10954 10953 10951 10949 10947 10944 10941 10938 10936 10935 10933 10931 10927 10923 10921 10920 10918 10915 10914 10914 10913 10911 10910 10908 10906 10904 10902 10901 10900 10898
10927 10930 10932 10933 10935 10937 10939 10942 10944 10946 10948 10950 10953 10954 10956 10957 10959 10961 10963 10966 10967 10968 10970 10971 10972 10973 10973 10974 10975 10976 10976 10977 10976 10976 10976 10975 10974 10973 10972 10972 10972 10971 10970 10969 10968 10967 10966 10965 10963 10962 10961 10960 10958 10956 10955 10953 10951 10949 10947 10944 10942 10939 10936 10934 10933 10931 10929 10926 10922 10919 10918 10918 10915 10912 10911 10911 10910 10909 10907 10905 10904 10902 10900 10898 10895
10924 10926 10928 10929 10931 10933 10935 10938 10940 10942 10944 10946 10948 10949 10951 10953 10955 10957 10960 10962 10963 10964 10966 10968 10968 10969 10969 10970 10971 10972 10973 10973 10973 10973 10972 10971 10970 10970 10969 10969 10968 10967 10967 10966 10965 10964 10963 10962 10961 10959 10958 10957 10956 10954 10952 10950 10948 10947 10944 10942 10940 10937 10933 10931 10930 10928 10927 10924 10921 10918 10916 10916 10913 10910 10908 10908 10909 10909 10907 10904 10903 10901 10899 10896 10892
10920 10922 10924 10925 10927 10929 10932 10934 10936 10938 10940 10942 10944 10945 10946 10949 10951 10954 10956 10957 10958 10960 10962 10964 10964 10965 10966 10966 10967 10968 10969 10969 10969 10969 10968 10967 10966 10966 10966 10965 10965 10964 10963 10962 10961 10961 10960 10959 10958 10957 10956 10955 10953 10951 10950 10948 10946 10944 10942 10940 10938 10935 10931 10929 10928 10926 10924 10923 10920 10918 10915 10914 10911 10908 10905 10905 10906 10906 10905 10903 10900 10898 10897 10893 10889
10916 10918 10920 10922 10923 10926 10928 10930 10932 10934 10936 10938 10939 10940 10943 10945 10947 10949 10951 10952 10954 10956 10957 10959 10961 10962 10963 10963 10963 10964 10965 10965 10965 10964 10963 10963 10962 10962 10962 10962 10961 10961 10959 10958 10957 10957 10956 10955 10954 10954 10953 10952 10950 10949 10947 10945 10943 10941 10939 10937 10935 10932 10928 10927 10927 10925 10923 10922 10919 10917 10915 10912 10910 10908 10905 10904 10904 10902 10901 10899 10895 10894 10893 10889 10886
10912 10914 10916 10918 10920 10922 10924 10926 10928 10930 10932 10933 10935 10936 10938 10941 10943 10945 10946 10948 10950 10951 10953 10955 10957 10958 10959 10959 10959 10960 10961 10961 10960 10959 10959 10958 10958 10958 10958 10958 10958 10957 10956 10954 10954 10953 10953 10952 10951 10950 10949 10949 10948 10946 10945 10943 10941 10939 10937 10934 10932 10929 10924 10923 10923 10921 10920 10920 10918 10916 10913 10910 10909 10907 10904 10903 10901 10898 10897 10893 10889 10889 10888 10884 10882
10907 10910 10912 10914 10917 10919 10921 10922 10924 10926 10927 10929 10930 10932 10934 10936 10939 10940 10942 10943 10945 10947 10949 10950 10952 10953 10954 10954 10956 10957 10957 10957 10956 10955 10955 10954 10954 10954 10954 10954 10954 10954 10952 10951 10950 10950 10949 10948 10947 10946 10946 10945 10944 10943 10942 10940 10938 10936 10934 10932 10929 10925 10920 10919 10917 10915 10913 10912 10911 10910 10908 10905 10904 10902 10899 10897 10894 10892 10892 10888 10885 10884 10883 10880 10879
10902 10905 10908 10911 10914 10916 10917 10919 10920 10921 10923 10924 10926 10928 10929 10931 10934 10935 10937 10938 10940 10942 10944 10945 10946 10948 10949 10950 10951 10952 10952 10952 10952 10951 10950 10950 10950 10950 10950 10950 10950 10950 10948 10947 10946 10946 10945 10945 10944 10943 10942 10941 10940 10939 10939 10937 10935 10933 10932 10930 10928 10923 10918 10917 10916 10912 10908 10903 10901 10901 10899 10896 10895 10894 10892 10890 10888 10887 10886 10884 10881 10879 10878 10877 10876
10898 10902 10905 10908 10909 10911 10913 10914 10915 10916 10918 10920 10921 10923 10925 10926 10928 10930 10932 10934 10936 10938 10939 10939 10941 10942 10944 10945 10947 10947 10948 10948 10947 10947 10946 10946 10946 10945 10945 10945 10946 10945 10944 10943 10942 10942 10941 10940 10940 10939 10938 10937 10936 10935 10935 10934 10932 10931 10929 10929 10927 10923 10918 10918 10918 10915 10907 10898 10893 10893 10892 10888 10887 10888 10887 10885 10883 10881 10879 10878 10876 10874 10872 10872 10869
10895 10898 10900 10902 10904 10906 10907 10908 10909 10911 10913 10915 10916 10918 10919 10921 10923 10924 10926 10928 10930 10932 10933 10934 10936 10937 10939 10940 10941 10942 10943 10943 10943 10943 10942 10942 10941 10941 10940 10940 10941 10940 10938 10937 10937 10937 10936 10935 10935 10935 10934 10933 10932 10932 10931 10930 10929 10928 10927 10927 10926 10922 10919 10919 10920 10917 10905 10894 10889 10888 10885 10882 10881 10882 10882 10879 10878 10876 10874 10872 10870 10869 10866 10864 10860
10890 10892 10895 10897 10899 10900 10902 10903 10905 10906 10908 10910 10911 10913 10914 10916 10918 10919 10921 10923 10925 10927 10928 10930 10931 10933 10934 10935 10936 10938 10938 10938 10938 10938 10938 10938 10937 10936 10935 10935 10935 10934 10933 10932 10932 10932 10932 10932 10931 10931 10931 10930 10929 10928 10927 10927 10926 10925 10924 10923 10923 10921 10918 10917 10920 10916 10902 10890 10887 10885 10880 10877 10877 10876 10876 10874 10872 10870 10869 10866 10865 10863 10861 10858 10854
10884 10887 10889 10892 10893 10895 10896 10898 10901 10903 10905 10906 10907 10908 10909 10911 10913 10914 10916 10918 10919 10921 10923 10925 10926 10928 10929 10930 10932 10933 10934 10933 10933 10933 10933 10934 10934 10933 10932 10931 10931 10930 10929 10929 10929 10929 10929 10929 10929 10928 10928 10926 10925 10924 10923 10922 10921 10920 10919 10918 10918 10918 10915 10914 10917 10912 10895 10882 10881 10880 10875 10871 10870 10869 10868 10867 10865 10864 10862 10861 10859 10856 10853 10852 10849
10878 10881 10884 10886 10888 10890 10892 10895 10897 10899 10901 10902 10903 10904 10905 10906 10908 10910 10911 10913 10914 10916 10918 10920 10921 10923 10924 10926 10927 10928 10929 10929 10928 10928 10928 10929 10929 10929 10928 10928 10928 10927 10926 10926 10926 10926 10925 10925 10925 10924 10923 10922 10921 10919 10918 10917 10916 10914 10914 10913 10913 10913 10912 10911 10911 10902 10886 10876 10876 10876 10871 10867 10866 10864 10861 10860 10859 10857 10855 10854 10853 10849 10846 10844 10842
10873 10876 10879 10882 10884 10887 10889 10891 10894 10895 10897 10899 10899 10900 10902 10903 10904 10906 10907 10908 10910 10912 10914 10915 10916 10918 10920 10921 10922 10923 10923 10923 10923 10923 10923 10924 10924 10924 10924 10923 10923 10922 10922 10921 10922 10921 10921 10921 10920 10919 10918 10917 10916 10915 10913 10912 10910 10909 10908 10907 10906 10906 10906 10906 10903 10893 10881 10875 10874 10872 10868 10866 10863 10861 10859 10857 10855 10852 10850 10849 10848 10845 10841 10840 10838
10868 10871 10874 10877 10880 10883 10885 10887 10889 10891 10893 10895 10896 10897 10898 10899 10900 10901 10903 10904 10905 10907 10909 10910 10912 10913 10915 10916 10917 10918 10918 10918 10917 10917 10918 10918 10918 10918 10918 10918 10918 10917 10917 10917 10917 10917 10917 10916 10915 10914 10913 10913 10912 10910 10908 10907 10905 10904 10903 10902 10900 10899 10898 10897 10895 10888 10881 10876 10872 10869 10866 10863 10860 10857 10855 10854 10851 10848 10847 10846 10845 10841 10839 10838 10836
10862 10865 10868 10871 10874 10877 10880 10882 10884 10887 10889 10890 10891 10892 10893 10894 10895 10896 10898 10899 10901 10902 10904 10905 10906 10907 10909 10910 10911 10912 10912 10912 10911 10912 10913 10913 10913 10913 10913 10913 10913 10913 10913 10913 10913 10913 10912 10912 10911 10910 10908 10908 10907 10905 10903 10902 10900 10899 10897 10896 10894 10893 10891 10890 10888 10884 10880 10875 10870 10867 10864 10861 10858 10854 10851 10849 10846 10843 10842 10842 10841 10838 10835 10833 10832
10856 10859 10862 10865 10868 10871 10874 10877 10879 10881 10883 10885 10886 10886 10887 10889 10890 10891 10893 10895 10896 10897 10899 10900 10901 10902 10903 10905 10906 10906 10906 10906 10906 10906 10907 10908 10908 10908 10908 10908 10908 10909 10908 10908 10908 10907 10907 10907 10906 10905 10904 10902 10901 10900 10898 10897 10895 10893 10891 10890 10888 10887 10885 10883 10881 10879 10877 10873 10868 10865 10862 10859 10856 10852 10848 10845 10842 10838 10836 10836 10834 10831 10829 10828 10826
10850 10853 10856 10859 10862 10865 10868 10871 10873 10875 10877 10878 10879 10880 10882 10884 10885 10886 10888 10890 10891 10892 10893 10894 10895 10896 10898 10899 10900 10900 10900 10900 10900 10901 10902 10902 10902 10902 10903 10903 10903 10903 10903 10903 10902 10902 10902 10901 10900 10900 10898 10897 10896 10895 10893 10891 10889 10887 10886 10884 10883 10881 10879 10877 10875 10873 10872 10869 10866 10862 10859 10856 10853 10850 10847 10844 10840 10835 10832 10830 10827 10825 10822 10821 10818
10844 10847 10850 10853 10856 10859 10862 10864 10866 10868 10870 10872 10873 10875 10876 10878 10880 10881 10883 10884 10885 10886 10887 10888 10889 10891 10893 10893 10893 10893 10893 10893 10895 10895 10896 10896 10896 10897 10897 10897 10898 10898 10897 10897 10897 10896 10896 10895 10895 10894 10893 10892 10891 10890 10888 10886 10884 10882 10880 10879 10877 10875 10873 10871 10869 10867 10865 10864 10861 10858 10855 10853 10850 10848 10845 10842 10839 10834 10829 10826 10823 10820 10816 10814 10811
10839 10841 10844 10847 10850 10853 10855 10857 10859 10861 10863 10865 10867 10869 10871 10873 10874 10876 10878 10879 10880 10881 10881 10882 10884 10885 10886 10886 10886 10886 10887 10887 10888 10889 10889 10890 10890 10891 10891 10891 10891 10891 10892 10891 10891 10890 10890 10890 10889 10888 10888 10887 10886 10884 10882 10881 10878 10876 10874 10872 10871 10869 10867 10865 10863 10861 10859 10857 10854 10852 10850 10848 10845 10842 10840 10837 10834 10830 10826 10822 10819 10815 10811 10808 10804
10834 10836 10839 10841 10844 10846 10848 10851 10853 10855 10857 10859 10861 10863 10865 10867 10869 10871 10872 10873 10874 10875 10875 10876 10877 10878 10879 10880 10880 10880 10880 10881 10882 10883 10883 10884 10884 10884 10884 10885 10885 10885 10885 10885 10885 10884 10884 10884 10883 10882 10882 10881 10880 10878 10876 10875 10873 10871 10869 10866 10864 10863 10861 10859 10857 10855 10852 10850 10847 10845 10843 10841 10839 10836 10833 10831 10829 10826 10821 10818 10814 10810 10806 10802 10798
10829 10831 10834 10836 10838 10840 10842 10845 10847 10849 10851 10853 10855 10857 10859 10861 10863 10865 10866 10867 10868 10869 10870 10870 10871 10872 10872 10873 10873 10874 10874 10875 10876 10876 10877 10877 10877 10877 10878 10878 10878 10879 10879 10879 10878 10878 10878 10877 10877 10876 10875 10874 10873 10872 10870 10868 10867 10865 10863 10860 10858 10856 10854 10852 10850 10848 10846 10843 10841 10838 10836 10834 10832 10829 10826 10824 10822 10819 10816 10812 10809 10805 10801 10796 10792
10824 10827 10829 10831 10833 10835 10837 10839 10841 10843 10845 10847 10849 10851 10853 10855 10857 10858 10859 10861 10862 10863 10864 10864 10865 10865 10866 10866 10866 10867 10868 10869 10869 10870 10870 10870 10870 10870 10871 10871 10871 10871 10871 10871 10871 10871 10871 10870 10869 10869 10868 10867 10866 10865 10863 10862 10860 10858 10856 10854 10851 10849 10848 10846 10843 10841 10839 10836 10833 10831 10830 10828 10825 10822 10819 10816 10813 10811 10808 10804 10801 10798 10795 10790 10786
10820 10822 10824 10826 10828 10830 10832 10834 10836 10838 10840 10842 10844 10846 10848 10849 10851 10852 10853 10854 10856 10857 10857 10858 10858 10858 10859 10859 10860 10860 10861 10862 10863 10863 10863 10863 10863 10863 10864 10864 10864 10864 10864 10864 10864 10863 10863 10862 10862 10861 10861 10860 10859 10857 10856 10854 10853 10851 10848 10846 10844 10843 10841 10839 10836 10834 10831 10829 10826 10824 10822 10820 10817 10814 10812 10808 10805 10802 10799 10795 10792 10789 10787 10783 10779
10815 10817 10819 10821 10823 10825 10827 10829 10831 10833 10835 10837 10838 10840 10842 10843 10844 10845 10847 10848 10849 10850 10850 10851 10851 10851 10852 10852 10853 10854 10855 10855 10855 10855 10855 10856 10856 10856 10856 10856 10856 10856 10856 10856 10856 10855 10855 10855 10854 10853 10853 10852 10851 10849 10848 10847 10845 10843 10841 10838 10836 10835 10833 10831 10829 10826 10824 10821 10819 10816 10814 10812 10809 10806 10803 10800 10796 10792 10789 10785 10782 10779 10776 10774 10771
10809 10811 10813 10815 10817 10819 10821 10823 10825 10827 10829 10831 10833 10834 10835 10837 10838 10839 10841 10842 10843 10843 10843 10843 10843 10844 10844 10845 10846 10847 10847 10847 10848 10848 10848 10848 10848 10848 10848 10848 10847 10848 10848 10848 10847 10847 10847 10847 10846 10845 10844 10843 10842 10841 10840 10838 10837 10835 10833 10831 10829 10827 10825 10823 10820 10818 10815 10813 10810 10808 10805 10803 10800 10796 10794 10790 10787 10784 10780 10776 10773 10769 10766 10764 10763
10803 10805 10807 10809 10811 10813 10815 10817 10818 10821 10823 10825 10826 10827 10829 10831 10832 10834 10835 10836 10836 10836 10836 10835 10835 10836 10837 10838 10839 10839 10840 10840 10840 10840 10840 10840 10840 10840 10839 10839 10839 10840 10840 10840 10840 10839 10839 10838 10837 10836 10835 10835 10834 10833 10831 10830 10828 10826 10824 10822 10821 10818 10816 10814 10812 10809 10806 10804 10801 10799 10796 10793 10790 10787 10785 10782 10779 10775 10772 10769 10765 10761 10757 10754 10752
10797 10799 10801 10803 10805 10807 10809 10811 10812 10814 10816 10818 10819 10820 10823 10825 10826 10827 10828 10828 10827 10827 10827 10827 10828 10829 10830 10831 10832 10832 10832 10833 10833 10833 10832 10832 10832 10832 10832 10831 10832 10832 10832 10832 10831 10830 10829 10828 10828 10827 10826 10826 10825 10824 10823 10821 10819 10817 10815 10813 10812 10810 10807 10805 10803 10800 10797 10795 10793 10790 10788 10785 10783 10780 10777 10774 10770 10767 10764 10761 10757 10753 10749 10745 10742
10791 10793 10794 10796 10798 10800 10803 10805 10806 10808 10809 10811 10812 10814 10817 10818 10819 10820 10820 10820 10819 10819 10819 10819 10820 10821 10823 10824 10824 10824 10825 10824 10824 10824 10824 10824 10824 10824 10824 10824 10824 10824 10824 10823 10822 10821 10820 10819 10819 10818 10817 10817 10816 10815 10813 10812 10809 10807 10805 10803 10802 10800 10798 10796 10794 10791 10788 10786 10784 10781 10779 10777 10774 10771 10768 10765 10762 10759 10756 10753 10749 10745 10742 10737 10734
10784 10786 10787 10789 10791 10793 10795 10798 10799 10801 10802 10804 10806 10809 10810 10811 10812 10812 10811 10810 10810 10811 10812 10812 10812 10813 10813 10814 10815 10816 10816 10816 10816 10816 10816 10817 10817 10817 10817 10817 10816 10815 10814 10813 10812 10812 10811 10810 10809 10808 10808 10807 10806 10805 10804 10802 10799 10797 10795 10793 10792 10790 10788 10786 10784 10782 10780 10777 10775 10772 10769 10767 10764 10761 10758 10755 10752 10749 10746 10743 10740 10736 10733 10729 10725
10777 10779 10781 10783 10785 10787 10788 10790 10792 10794 10795 10797 10800 10803 10804 10804 10804 10804 10802 10800 10801 10802 10803 10803 10803 10803 10803 10804 10805 10807 10807 10807 10808 10808 10808 10808 10809 10808 10808 10807 10806 10805 10804 10804 10803 10803 10802 10801 10800 10799 10798 10797 10796 10796 10794 10792 10789 10787 10785 10783 10781 10780 10778 10776 10774 10772 10770 10768 10765 10762 10759 10756 10753 10750 10748 10745 10742 10739 10736 10733 10730 10727 10723 10720 10716
10770 10772 10774 10776 10778 10780 10782 10783 10785 10786 10787 10788 10792 10795 10796 10797 10797 10796 10794 10793 10793 10793 10793 10794 10794 10794 10794 10795 10796 10798 10798 10798 10799 10799 10799 10799 10799 10798 10797 10796 10795 10795 10794 10794 10794 10793 10792 10791 10789 10788 10787 10786 10786 10786 10784 10782 10779 10777 10775 10773 10771 10769 10768 10766 10764 10762 10760 10758 10755 10752 10749 10745 10741 10738 10735 10732 10730 10727 10725 10722 10719 10716 10713 10710 10707
10764 10766 10768 10769 10771 10772 10774 10775 10777 10778 10779 10780 10783 10785 10787 10788 10789 10788 10787 10786 10786 10786 10785 10785 10785 10786 10786 10787 10787 10788 10788 10789 10789 10790 10790 10789 10788 10787 10786 10785 10785 10785 10784 10784 10783 10783 10782 10781 10779 10778 10777 10776 10775 10775 10774 10771 10768 10766 10764 10762 10760 10759 10757 10755 10753 10751 10749 10747 10744 10741 10738 10734 10730 10726 10723 10720 10717 10714 10712 10710 10707 10705 10702 10700 10697
10756 10758 10760 10762 10764 10765 10766 10767 10768 10770 10771 10773 10774 10775 10777 10779 10780 10780 10781 10782 10782 10780 10778 10777 10777 10777 10777 10777 10777 10778 10778 10779 10779 10779 10778 10778 10777 10777 10776 10775 10774 10774 10774 10773 10772 10772 10771 10770 10769 10768 10766 10765 10764 10763 10762 10760 10757 10756 10754 10751 10749 10747 10746 10744 10742 10739 10737 10734 10731 10728 10725 10722 10719 10715 10712 10709 10705 10702 10699 10697 10694 10692 10690 10688 10686
10748 10750 10752 10754 10756 10758 10759 10760 10761 10762 10763 10764 10765 10766 10767 10768 10769 10771 10773 10774 10775 10774 10771 10769 10768 10768 10768 10768 10768 10768 10768 10768 10768 10767 10767 10767 10767 10766 10765 10764 10763 10762 10762 10762 10762 10761 10760 10760 10759 10757 10755 10753 10752 10751 10749 10748 10746 10745 10743 10740 10738 10736 10734 10732 10730 10727 10723 10720 10717 10714 10712 10709 10706 10703 10700 10697 10694 10691 10688 10685 10682 10680 10677 10675 10673
10740 10743 10745 10747 10749 10751 10753 10753 10753 10754 10755 10755 10756 10757 10757 10758 10759 10760 10762 10763 10763 10763 10762 10760 10759 10759 10758 10758 10758 10758 10758 10758 10757 10757 10756 10756 10756 10755 10755 10754 10752 10752 10751 10751 10751 10751 10749 10748 10747 10745 10744 10742 10740 10738 10737 10735 10734 10733 10731 10729 10727 10724 10722 10719 10716 10713 10710 10706 10703 10700 10698 10695 10693 10690 10688 10685 10683 10680 10677 10674 10672 10669 10666 10663 10661
10731 10735 10738 10739 10742 10744 10746 10747 10747 10747 10746 10744 10744 10744 10745 10747 10748 10748 10749 10750 10750 10750 10750 10749 10749 10749 10749 10748 10748 10748 10748 10747 10747 10746 10745 10745 10744 10744 10744 10743 10742 10741 10741 10740 10740 10739 10738 10737 10735 10733 10731 10730 10728 10726 10725 10723 10722 10720 10719 10717 10715 10712 10709 10706 10703 10700 10696 10693 10690 10687 10684 10681 10679 10677 10674 10672 10670 10668 10666 10664 10661 10659 10656 10653 10650
10724 10727 10730 10733 10735 10738 10740 10740 10740 10739 10736 10734 10732 10731 10732 10733 10735 10735 10736 10737 10737 10737 10737 10737 10737 10737 10738 10738 10738 10737 10737 10736 10735 10735 10734 10733 10733 10732 10732 10732 10731 10730 10729 10728 10727 10727 10726 10725 10723 10721 10719 10718 10716 10715 10713 10711 10709 10708 10706 10704 10702 10699 10696 10693 10690 10687 10684 10680 10677 10673 10670 10667 10664 10662 10660 10658 10656 10654 10653 10651 10649 10647 10645 10642 10639
10714 10716 10720 10724 10726 10729 10731 10732 10733 10732 10728 10723 10719 10719 10719 10721 10723 10724 10723 10723 10724 10724 10724 10724 10725 10725 10725 10726 10725 10725 10725 10724 10723 10723 10722 10721 10720 10719 10719 10718 10718 10717 10717 10716 10715 10714 10713 10712 10710 10708 10706 10705 10704 10703 10701 10698 10697 10695 10693 10690 10688 10685 10682 10679 10677 10674 10671 10668 10664 10661 10657 10654 10651 10648 10646 10644 10642 10640 10639 10637 10635 10634 10632 10630 10628
10703 10705 10709 10712 10714 10716 10718 10719 10720 10720 10717 10711 10706 10706 10708 10709 10710 10711 10711 10711 10711 10711 10711 10711 10712 10712 10713 10713 10712 10712 10711 10711 10710 10709 10709 10708 10707 10707 10706 10706 10706 10705 10705 10704 10702 10701 10699 10698 10697 10695 10693 10691 10691 10690 10689 10686 10684 10682 10679 10676 10673 10671 10668 10665 10663 10660 10657 10654 10651 10648 10644 10641 10638 10635 10633 10631 10629 10626 10624 10623 10621 10619 10618 10616 10614